Home > Weather > Puerto Plata > Past weeks

Flag for Dominican Republic Weather for the Past 2 Weeks in Puerto Plata, Dominican Republic

Now
70 °F

Rain. Mostly cloudy.


Feels Like: 70 °F
Forecast: 74 / 79 °F
Wind: No wind

Location: Puerto Plata International

Current Time: Feb 14, 2016 at 8:54:26 AM

Latest Report: Feb 14, 2016 at 8:00 AM


Visibility: 2 mi

Pressure: 30.01 "Hg

Humidity: 100%

Dew point: 70 °F

Location of Puerto PlataLocation

Historic Weather in Puerto Plata — Graph

°F

Puerto Plata Temperature Yesterday

Maximum temperature yesterday: 86 °F (at 1:00 PM)
Minimum temperature yesterday: 68 °F (at 8:00 AM)
Average temperature yesterday: 78 °F

High & Low Weather Summary for the Past Weeks

 TemperatureHumidityPressure
High90 °F (Feb 7, 2:00 PM)100% (Jan 31, 7:00 AM)30.15 "Hg (Jan 31, 7:00 AM)
Low66 °F (Feb 7, 7:00 AM)52% (Feb 7, 2:00 PM)29.92 "Hg (Feb 7, 5:00 AM)
Average78 °F82%30.02 "Hg
* Reported Jan 30 8:00 AM — Feb 14 8:00 AM, Puerto Plata, Weather by CustomWeather, © 2016

Note: Actual official high and low records may vary slightly from our data, if they occured in-between our weather recording intervals... More about our weather records

Advertising

Puerto Plata Weather History for the Previous 24 Hours

 ConditionsComfort  
Time TempWeatherWind HumidityBarometerVisibility
8:00 AM
Sun, Feb 14
70 °FRain. Mostly cloudy.No wind100%30.01 "Hg2 mi
7:00 AM72 °FPassing clouds.17 mph94%29.98 "HgN/A
5:00 AM72 °FPassing clouds.No wind94%29.95 "HgN/A
2:35 AM73 °FPassing clouds.No wind94%30.01 "HgN/A
11:00 PM
Sat, Feb 13
77 °FPassing clouds.12 mph89%30.04 "HgN/A
8:00 PM77 °FPassing clouds.12 mph83%30.01 "HgN/A
7:00 PM77 °FPassing clouds.6 mph83%29.98 "HgN/A
6:00 PM81 °FPassing clouds.12 mph74%29.98 "HgN/A
5:00 PM82 °FPassing clouds.17 mph70%29.98 "HgN/A
4:00 PM82 °FPassing clouds.12 mph74%29.95 "HgN/A
3:00 PM82 °FPassing clouds.12 mph74%29.95 "HgN/A
2:00 PM82 °FScattered clouds.9 mph70%30.01 "HgN/A
1:00 PM86 °FScattered clouds.12 mph66%30.01 "HgN/A
12:00 PM84 °FPassing clouds.6 mph66%30.04 "HgN/A
11:00 AM82 °FPassing clouds.6 mph70%30.07 "HgN/A
10:00 AM81 °FPassing clouds.8 mph74%30.04 "HgN/A
9:00 AM75 °FPassing clouds.6 mph83%30.04 "HgN/A
8:00 AM68 °FPassing clouds.No wind100%30.04 "HgN/A
Weather by CustomWeather, © 2016

See weather overviewHow to use our weather pages